Vertical_Velocity
-1 5 15 16 8 7 14 2 1 -2 -0 2 0 -1 -4 0 -0 0 -0 -1 -1 -2 -0 0 1 -2 -1 -0 -0 -1 -2 -3 -1 -8 -1 -2 -2 -3 -3 -5 -4 -1 -3 -14
2 9 11 5 -1 -1 2 3 2 15 4 -1 0 -1 -1 -1 1 -1 1 -0 -2 -0 -1 -2 0 -0 1 0 -0 -2 -4 -2 -2 -11 -7 -1 0 -0 -1 -1 -2 -2 -3 -10
2 2 16 6 6 4 3 -7 0 7 15 3 -2 -0 -1 0 2 -0 -0 -2 -0 0 1 0 -1 0 1 0 0 1 -1 -0 -4 -8 -4 -2 -0 -1 -0 -1 -1 -2 -4 -3
2 6 13 -0 3 6 1 -1 -4 -0 -1 2 0 1 0 1 0 0 1 1 -0 -3 -0 1 -0 0 -0 -0 -0 0 -3 -1 0 -1 -0 1 -1 -0 -1 1 -4 -0 -5 -0
-0 15 5 -6 -9 1 2 -6 -3 4 -0 0 5 0 -1 -1 1 -5 -1 1 0 0 -1 -3 -0 -2 0 -1 0 -0 -1 0 0 -1 -1 1 0 -0 0 -0 -1 2 1 -4
13 8 16 7 -2 2 -5 6 2 0 0 1 1 -1 -3 -2 -1 -0 1 -2 -2 0 -1 1 1 -1 -0 -1 -2 -0 0 -1 0 -3 0 -1 -0 -7 -2 -1 -0 -3 2 -16
12 15 6 9 -0 -2 -2 -5 -3 -3 -1 -1 -2 -0 -1 -1 -2 -2 -0 -1 -2 -1 -1 -1 -1 -0 -0 3 -2 -0 -1 0 -0 -1 -2 -2 -15 -1 -1 -1 -1 -0 0 -1
7 1 6 -1 -3 8 -5 5 -2 -2 -0 -1 1 1 -1 2 3 -1 -2 0 2 -1 -1 -2 -1 -1 -1 -2 -1 1 0 -0 -0 -1 -1 -9 -9 -0 -0 0 1 1 0 -1
-2 -2 -2 -1 1 -2 3 7 3 6 -5 -3 2 -1 -1 -1 0 -1 1 2 2 -0 -1 -0 -1 -1 -2 -1 2 -0 2 1 -1 1 0 -2 -5 -2 1 0 -1 1 1 1
-5 -4 -11 -6 -3 -7 -2 -1 3 -3 -2 -0 -2 -2 -4 0 0 -2 1 0 -1 2 0 1 -1 -2 -1 -0 -0 0 2 2 -1 -0 -0 -6 -1 -2 1 -3 -3 2 3 2
-3 -4 -5 -2 -0 5 3 -9 -5 3 -2 1 1 1 -4 -1 2 -2 1 -2 0 -0 0 1 -1 1 -1 0 -1 -2 -4 -3 -1 2 3 -4 1 -4 -5 1 -3 2 2 6
-3 -1 1 2 0 0 3 2 1 5 2 1 -0 2 1 -1 1 -6 1 -0 -1 -1 -2 -0 -0 1 -0 -1 -2 -3 -3 -3 -3 -3 -4 0 3 3 4 3 1 3 1 0
-5 0 2 -0 2 1 1 3 3 2 -5 0 3 2 3 -0 0 -0 -8 -1 -1 0 -0 -3 -0 -1 -2 -1 -4 0 -1 0 -1 -5 -4 0 1 -1 4 2 3 -2 -3 -6
-1 -3 -2 1 -0 2 2 -1 -0 1 -2 -6 1 2 -2 0 3 4 -0 -4 -1 -2 1 -1 -1 -2 0 -2 -3 -2 -3 -0 -1 -3 -4 -8 -1 1 -6 -8 -5 -5 2 -4
1 -4 -6 -2 0 2 -0 3 0 0 -2 -3 0 3 2 3 0 -0 -1 -1 -1 -1 -2 -1 -2 -1 1 0 -2 -0 -2 -5 -1 -6 -5 6 -9 -14 9 2 0 1 -3 -7
0 -3 -0 2 1 2 1 -6 -2 -3 -2 -6 -2 3 0 1 2 1 0 -0 -1 -2 -3 -2 -0 1 0 -1 -0 -6 -4 -0 8 -9 -3 4 -1 -3 -6 -1 -1 1 4 1
3 7 3 1 -1 -6 -7 -1 1 -1 -1 -4 -2 -1 1 1 -0 0 1 2 1 1 -1 0 -0 -1 2 -0 0 -3 -2 -2 -5 1 4 -6 -1 -17 -1 1 -3 1 -4 -2
-2 -3 -3 0 -0 -1 -4 -2 0 -1 -4 -3 -3 -3 -1 0 -1 -0 1 0 0 2 0 0 -1 1 2 -1 -5 -1 2 1 -2 -1 4 4 -2 -7 -8 -0 -2 -3 0 -2
1 -0 1 -4 -5 -4 1 -1 -1 -1 -4 -4 -2 -3 -4 -0 0 1 1 -0 -2 1 -0 -1 2 -0 -2 -5 -0 -0 2 10 2 -7 -4 -5 4 -3 -6 -2 -6 1 -4 0
-0 -0 -4 -4 -1 1 -2 -5 -5 -4 -3 -2 -2 0 -3 0 -1 -1 -1 -0 -0 -1 -5 1 1 -2 1 -0 -4 -2 -7 -3 0 -1 -15 -5 -5 2 -2 -1 1 2 -1 -1
-1 -3 -3 -0 -2 -3 -3 -3 -4 -1 -4 -0 1 1 -2 1 -4 -1 1 -2 -1 -0 -7 2 -0 2 -3 -2 -4 -3 -2 -2 -5 6 2 2 6 2 0 -7 -3 0 -0 -4
-2 -5 -4 -1 -2 -2 -9 -2 -4 -2 -2 0 -1 0 0 1 0 -2 -1 -1 -2 -4 -1 -0 -0 1 -2 -2 -4 -5 -1 -0 -3 7 1 0 2 2 2 1 -1 -0 2 3
-1 -4 -3 0 0 -10 -6 -1 -5 -2 -1 -0 -0 -2 -0 -1 -1 -1 0 -0 -4 -0 1 -3 -4 -1 0 2 -2 -5 2 3 3 -2 0 -1 -2 1 7 2 3 7 6 3
-2 -1 -6 -7 -5 -2 -3 -2 -2 0 0 -0 -1 -0 -1 0 -2 -0 -0 -6 -1 -1 -0 -4 -2 0 -5 -6 -3 1 -5 3 0 -3 -2 -0 1 -2 3 6 8 5 2 1
-3 -1 -4 -1 0 1 1 0 -0 0 0 0 -1 -1 -0 -0 -2 -1 -3 -5 -2 -3 -4 -2 -1 -2 -0 -2 0 0 -0 -3 -4 -2 0 -1 -1 3 -2 4 4 0 2 2
-1 -1 -3 1 -1 -1 -0 -0 -1 1 1 -0 -0 -1 -3 -2 -2 -1 -3 -1 -4 -5 -1 -3 -3 -3 -0 2 2 -1 0 0 -1 -0 2 1 2 3 1 2 0 1 0 -1
-1 -1 1 0 -1 -0 0 0 1 1 1 -1 -1 -2 -10 -3 -1 -1 -2 -4 -4 1 -5 1 5 2 -3 -3 -3 -1 1 -2 -2 1 1 0 1 3 3 1 3 2 0 3
Height
1469 1469 1471 1472 1475 1479 1482 1487 1490 1490 1495 1504 1500 1497 1494 1489 1489 1487 1489 1487 1485 1490 1492 1494 1496 1492 1490 1493 1495 1497 1497 1504 1506 1499 1493 1492 1494 1496 1499 1513 1512 1522 1521 1503
1460 1460 1461 1465 1468 1474 1477 1483 1484 1485 1488 1491 1493 1488 1487 1486 1487 1489 1488 1490 1484 1484 1488 1492 1492 1488 1490 1491 1494 1496 1496 1503 1516 1501 1498 1495 1493 1492 1493 1499 1505 1508 1521 1492
1451 1450 1451 1457 1464 1467 1476 1480 1484 1483 1483 1482 1482 1484 1483 1484 1483 1487 1487 1487 1488 1486 1487 1487 1489 1489 1490 1490 1492 1493 1494 1500 1499 1507 1494 1496 1495 1494 1493 1497 1510 1498 1497 1486
1441 1442 1446 1444 1463 1464 1471 1474 1477 1476 1477 1476 1480 1482 1481 1479 1483 1486 1487 1487 1487 1486 1493 1489 1489 1490 1490 1490 1492 1494 1495 1499 1499 1495 1494 1495 1494 1493 1494 1495 1496 1497 1486 1487
1437 1435 1436 1442 1454 1462 1468 1467 1473 1474 1475 1475 1478 1479 1480 1479 1481 1484 1486 1487 1486 1487 1489 1488 1490 1491 1492 1488 1492 1494 1496 1497 1498 1500 1495 1495 1493 1489 1489 1488 1487 1485 1482 1479
1428 1433 1433 1437 1447 1455 1461 1464 1465 1469 1470 1473 1476 1476 1478 1481 1482 1483 1482 1482 1487 1490 1488 1488 1489 1492 1493 1492 1494 1497 1498 1500 1500 1501 1494 1493 1491 1482 1475 1475 1474 1472 1474 1469
1426 1429 1433 1439 1443 1451 1458 1460 1464 1470 1469 1467 1470 1475 1477 1480 1481 1482 1484 1485 1486 1489 1489 1490 1490 1490 1491 1491 1490 1494 1498 1497 1501 1501 1496 1509 1477 1472 1471 1472 1471 1469 1468 1467
1422 1429 1433 1436 1442 1449 1455 1457 1461 1463 1470 1470 1470 1473 1477 1477 1477 1480 1483 1488 1487 1488 1490 1491 1491 1491 1490 1483 1485 1487 1493 1495 1497 1505 1502 1487 1475 1470 1472 1469 1472 1473 1469 1466
1420 1426 1430 1435 1441 1447 1454 1454 1458 1463 1466 1469 1468 1472 1474 1479 1479 1481 1482 1487 1487 1488 1491 1491 1494 1488 1486 1483 1484 1485 1489 1491 1493 1498 1496 1493 1475 1473 1471 1469 1477 1475 1472 1470
1421 1426 1429 1437 1443 1447 1452 1454 1458 1463 1467 1466 1467 1469 1473 1474 1480 1478 1483 1486 1488 1487 1491 1492 1491 1489 1486 1484 1481 1488 1488 1489 1483 1486 1484 1480 1475 1473 1470 1475 1487 1479 1476 1474
1422 1428 1433 1438 1442 1445 1450 1454 1459 1461 1464 1467 1465 1466 1469 1472 1474 1479 1482 1489 1485 1488 1492 1490 1486 1488 1489 1490 1485 1485 1487 1489 1485 1485 1482 1482 1475 1473 1477 1487 1483 1480 1479 1478
1425 1430 1434 1438 1440 1445 1449 1453 1458 1461 1462 1463 1465 1467 1470 1469 1473 1475 1480 1481 1480 1482 1486 1489 1491 1490 1495 1494 1491 1485 1488 1484 1484 1484 1477 1477 1477 1480 1481 1480 1481 1480 1478 1478
1429 1433 1436 1440 1443 1446 1451 1453 1455 1457 1459 1466 1468 1468 1469 1470 1472 1475 1475 1480 1483 1482 1481 1485 1491 1495 1493 1497 1492 1485 1483 1482 1484 1482 1476 1476 1477 1477 1478 1478 1478 1478 1478 1477
1432 1435 1438 1441 1444 1447 1450 1451 1453 1456 1458 1463 1469 1468 1470 1471 1472 1473 1473 1476 1479 1482 1484 1484 1488 1492 1490 1493 1485 1486 1483 1482 1482 1480 1477 1473 1472 1474 1474 1472 1473 1472 1472 1472
1434 1437 1440 1443 1446 1447 1450 1452 1453 1454 1459 1463 1469 1470 1471 1471 1471 1472 1473 1477 1480 1482 1483 1485 1488 1487 1488 1485 1484 1484 1478 1479 1481 1475 1475 1474 1472 1467 1466 1466 1464 1464 1464 1462
1436 1440 1442 1444 1446 1447 1449 1452 1454 1455 1458 1462 1468 1470 1471 1471 1471 1473 1475 1477 1478 1480 1481 1482 1481 1482 1484 1488 1484 1472 1473 1473 1473 1472 1471 1469 1465 1463 1460 1458 1456 1454 1454 1453
1439 1441 1442 1444 1445 1447 1450 1454 1456 1457 1459 1460 1468 1469 1471 1471 1472 1474 1476 1476 1477 1478 1479 1479 1479 1479 1480 1481 1474 1470 1469 1469 1468 1467 1465 1462 1459 1455 1452 1450 1445 1444 1442 1441
1440 1442 1444 1446 1447 1450 1452 1455 1457 1458 1459 1462 1469 1472 1472 1472 1473 1474 1474 1475 1475 1476 1476 1477 1477 1477 1477 1478 1466 1465 1465 1465 1463 1461 1460 1456 1451 1447 1442 1440 1436 1431 1429 1428
1441 1444 1446 1448 1450 1453 1456 1457 1458 1459 1463 1463 1467 1474 1479 1472 1473 1473 1474 1474 1477 1476 1475 1474 1475 1473 1474 1465 1464 1464 1463 1462 1458 1454 1450 1445 1441 1436 1432 1429 1426 1421 1417 1417
1444 1447 1448 1452 1455 1457 1458 1460 1460 1461 1463 1465 1467 1469 1472 1473 1472 1473 1475 1474 1475 1480 1471 1470 1470 1466 1463 1463 1463 1463 1461 1457 1452 1447 1439 1434 1429 1425 1420 1416 1413 1409 1405 1404
1447 1448 1452 1456 1458 1459 1460 1462 1464 1467 1468 1467 1468 1469 1470 1473 1475 1475 1475 1477 1476 1479 1471 1468 1464 1460 1463 1462 1460 1457 1454 1449 1444 1440 1433 1428 1422 1416 1410 1403 1398 1394 1391 1388
1448 1449 1454 1458 1459 1460 1463 1474 1470 1469 1470 1468 1468 1470 1472 1473 1473 1474 1476 1477 1476 1480 1467 1468 1464 1461 1458 1457 1453 1448 1444 1440 1434 1429 1423 1417 1411 1405 1398 1391 1384 1379 1374 1372
1451 1452 1455 1457 1463 1469 1474 1480 1478 1475 1466 1468 1469 1471 1472 1473 1474 1476 1477 1479 1475 1466 1467 1460 1459 1454 1453 1450 1445 1439 1436 1431 1425 1419 1414 1407 1401 1394 1387 1379 1371 1364 1359 1356
1452 1453 1462 1466 1473 1470 1467 1467 1466 1466 1466 1468 1469 1471 1473 1473 1475 1476 1476 1472 1470 1473 1478 1461 1453 1450 1447 1444 1440 1435 1428 1423 1417 1411 1405 1398 1391 1383 1376 1370 1363 1358 1354 1350
1452 1454 1464 1467 1462 1462 1462 1464 1465 1466 1467 1469 1470 1472 1474 1474 1477 1476 1475 1477 1475 1467 1462 1452 1449 1446 1442 1437 1433 1428 1421 1415 1409 1404 1397 1391 1384 1377 1369 1363 1359 1357 1355 1353
1455 1457 1461 1461 1461 1462 1463 1464 1464 1466 1467 1469 1470 1473 1479 1478 1476 1477 1477 1477 1473 1454 1450 1449 1445 1441 1436 1432 1427 1421 1416 1410 1404 1398 1392 1386 1379 1373 1366 1360 1357 1356 1356 1355
1456 1458 1459 1460 1461 1462 1462 1463 1464 1465 1467 1469 1470 1477 1475 1474 1476 1474 1464 1463 1452 1448 1445 1442 1440 1436 1431 1426 1421 1416 1410 1404 1398 1393 1387 1381 1376 1370 1365 1361 1358 1357 1358 1358